Location: Aranbee
(34.0885°N, 118.2342°W)
Time: 12:30:59
(UTC+00:00)

Tiros 1 - Pass Details

Date: 02 December 2020
Orbit: 630 x 663 km, 48.4° (Epoch: 21 January)

Event Time Altitude Azimuth Distance (km) Brightness Sun altitude
Rises 00:09:56 0° 291° (WNW) 2,992 11.2 5.2°
Reaches altitude 10° 00:13:13 10° 314° (NW) 2,078 10.0 4.7°
Maximum altitude 00:16:04 15° 351° (N) 1,739 9.2 4.2°
Drops below altitude 10° 00:18:54 10° 28° (NNE) 2,072 9.3 3.6°
Sets 00:22:10 0° 51° (NE) 2,979 9.9 3.1°
